When you browse on this site, cookies collect data to enhance your experience and personalize the content and advertising you see.
Visit our Privacy Policy to learn more. By continuing to use the site, you agree to this use of cookies and data.
  • In Österreich
  • Länderverzeichnis
  • Für 7 Tage
  • Wassertemperatur
  • Satellitenkarten
  • Wetterkarte
  • News
  • Widgets
  • user-avatar
    Anmelden

    Stündliche Wetter Summit

    Heute, 17 Februar, Sonntag

    Zeit Temperatur Niederschläge Wind Luftdruck Luftfeuchtigkeit
    00:00 -3°C° 0 mm 2 m/S 756 mmHg 62%
    01:00 -3°C° 0 mm 2 m/S 756 mmHg 63%
    02:00 -3°C° 0 mm 2 m/S 757 mmHg 62%
    03:00 -3°C° 0 mm 2 m/S 757 mmHg 62%
    04:00 -4°C° 0 mm 2 m/S 757 mmHg 62%
    05:00 -4°C° 0 mm 2 m/S 757 mmHg 62%
    06:00 -4°C° 0 mm 2 m/S 757 mmHg 62%
    07:00 -2°C° 0 mm 1 m/S 758 mmHg 61%
    08:00 -1°C° 0 mm 1 m/S 758 mmHg 56%
    09:00 +1°C° 0 mm 1 m/S 758 mmHg 50%
    10:00 +2°C° 0 mm 1 m/S 758 mmHg 45%
    11:00 +2°C° 0 mm 1 m/S 758 mmHg 42%
    12:00 +3°C° 0 mm 1 m/S 758 mmHg 40%
    13:00 +4°C° 0 mm 1 m/S 758 mmHg 38%
    14:00 +3°C° 0 mm 2 m/S 757 mmHg 38%
    15:00 +3°C° 0 mm 2 m/S 756 mmHg 38%
    16:00 +3°C° 0 mm 2 m/S 756 mmHg 39%
    17:00 +2°C° 0 mm 2 m/S 756 mmHg 44%
    18:00 +2°C° 0 mm 2 m/S 756 mmHg 50%
    19:00 +1°C° 0 mm 2 m/S 756 mmHg 55%
    20:00 -1°C° 0.7 mm 2 m/S 755 mmHg 66%
    21:00 -1°C° 0.7 mm 2 m/S 755 mmHg 77%
    22:00 +1°C° 0.7 mm 1 m/S 755 mmHg 88%
    23:00 -1°C° 0.7 mm 2 m/S 754 mmHg 91%

    Morgen, 18 Februar, Montag

    Zeit Temperatur Niederschläge Wind Luftdruck Luftfeuchtigkeit
    00:00 +1°C° 0.7 mm 2 m/S 753 mmHg 93%
    01:00 +1°C° 0.7 mm 2 m/S 753 mmHg 95%
    02:00 +1°C° 1 mm 2 m/S 752 mmHg 96%
    03:00 +1°C° 1 mm 2 m/S 751 mmHg 97%
    04:00 +1°C° 1 mm 2 m/S 751 mmHg 99%
    05:00 +1°C° 0.5 mm 2 m/S 750 mmHg 99%
    06:00 +1°C° 0.5 mm 2 m/S 750 mmHg 99%
    07:00 +1°C° 0.5 mm 2 m/S 750 mmHg 99%
    08:00 +2°C° 0.1 mm 1 m/S 750 mmHg 99%
    09:00 +3°C° 0.1 mm 1 m/S 750 mmHg 98%
    10:00 +3°C° 0.1 mm 1 m/S 750 mmHg 98%
    11:00 +4°C° 0 mm 1 m/S 750 mmHg 96%
    12:00 +4°C° 0 mm 1 m/S 751 mmHg 93%
    13:00 +5°C° 0 mm 1 m/S 751 mmHg 91%
    14:00 +3°C° 0.1 mm 3 m/S 752 mmHg 85%
    15:00 +3°C° 0.1 mm 4 m/S 752 mmHg 78%
    16:00 +2°C° 0.1 mm 5 m/S 753 mmHg 71%
    17:00 +1°C° 0 mm 5 m/S 754 mmHg 70%
    18:00 -2°C° 0 mm 6 m/S 756 mmHg 69%
    19:00 -4°C° 0 mm 6 m/S 757 mmHg 67%
    20:00 -5°C° 0 mm 6 m/S 759 mmHg 66%
    21:00 -5°C° 0 mm 6 m/S 760 mmHg 65%
    22:00 -6°C° 0 mm 5 m/S 761 mmHg 64%
    23:00 -6°C° 0 mm 5 m/S 761 mmHg 62%

    übermorgen, 19 Februar, Dienstag

    Zeit Temperatur Niederschläge Wind Luftdruck Luftfeuchtigkeit
    00:00 -7°C° 0 mm 5 m/S 762 mmHg 60%
    01:00 -7°C° 0 mm 5 m/S 763 mmHg 59%
    02:00 -8°C° 0 mm 5 m/S 763 mmHg 58%
    03:00 -8°C° 0 mm 4 m/S 764 mmHg 58%
    04:00 -8°C° 0 mm 4 m/S 764 mmHg 58%
    05:00 -8°C° 0 mm 4 m/S 765 mmHg 59%
    06:00 -7°C° 0 mm 3 m/S 766 mmHg 59%
    07:00 -7°C° 0 mm 3 m/S 766 mmHg 60%
    08:00 -7°C° 0 mm 3 m/S 767 mmHg 57%
    09:00 -6°C° 0 mm 3 m/S 767 mmHg 55%
    10:00 -5°C° 0 mm 3 m/S 768 mmHg 52%
    11:00 -4°C° 0 mm 3 m/S 768 mmHg 49%
    12:00 -2°C° 0 mm 3 m/S 768 mmHg 46%
    13:00 -1°C° 0 mm 3 m/S 768 mmHg 44%
    14:00 -1°C° 0 mm 3 m/S 768 mmHg 44%
    15:00 -1°C° 0 mm 3 m/S 768 mmHg 44%
    16:00 0°C° 0 mm 3 m/S 768 mmHg 44%
    17:00 -1°C° 0 mm 3 m/S 768 mmHg 47%
    18:00 -2°C° 0 mm 3 m/S 768 mmHg 51%
    19:00 -3°C° 0 mm 2 m/S 768 mmHg 54%
    20:00 -3°C° 0 mm 2 m/S 769 mmHg 54%
    21:00 -4°C° 0 mm 2 m/S 769 mmHg 55%
    22:00 -4°C° 0 mm 2 m/S 769 mmHg 55%
    23:00 -4°C° 0 mm 2 m/S 769 mmHg 54%

    20 Februar, Mittwoch

    Zeit Temperatur Niederschläge Wind Luftdruck Luftfeuchtigkeit
    00:00 -5°C° 0 mm 2 m/S 769 mmHg 54%
    01:00 -5°C° 0 mm 2 m/S 769 mmHg 54%
    02:00 -5°C° 0 mm 2 m/S 769 mmHg 54%
    03:00 -3°C° 0 mm 1 m/S 769 mmHg 55%
    04:00 -3°C° 0 mm 1 m/S 769 mmHg 55%
    05:00 -3°C° 0 mm 1 m/S 769 mmHg 55%
    06:00 -2°C° 0 mm 1 m/S 768 mmHg 55%
    07:00 -2°C° 0 mm 1 m/S 768 mmHg 55%
    08:00 -2°C° 0 mm 1 m/S 768 mmHg 56%
    09:00 -3°C° 0 mm 2 m/S 768 mmHg 56%
    10:00 -3°C° 0 mm 2 m/S 768 mmHg 57%
    11:00 -3°C° 0.1 mm 2 m/S 767 mmHg 59%
    12:00 -2°C° 0.1 mm 3 m/S 766 mmHg 62%
    13:00 -2°C° 0.1 mm 3 m/S 766 mmHg 64%
    14:00 -2°C° 0.5 mm 3 m/S 765 mmHg 72%
    15:00 -4°C° 0.5 mm 3 m/S 764 mmHg 79%
    16:00 -4°C° 0.5 mm 3 m/S 763 mmHg 86%
    17:00 -3°C° 0.2 mm 4 m/S 762 mmHg 87%
    18:00 -3°C° 0.2 mm 4 m/S 762 mmHg 89%
    19:00 -3°C° 0.2 mm 4 m/S 761 mmHg 91%
    20:00 -2°C° 0.1 mm 4 m/S 760 mmHg 93%
    21:00 -1°C° 0.1 mm 4 m/S 759 mmHg 94%
    22:00 0°C° 0.1 mm 3 m/S 758 mmHg 96%
    23:00 0°C° 0.4 mm 3 m/S 757 mmHg 97%

    21 Februar, Donnerstag

    Zeit Temperatur Niederschläge Wind Luftdruck Luftfeuchtigkeit
    00:00 +2°C° 0.4 mm 2 m/S 756 mmHg 98%
    01:00 +2°C° 0.4 mm 2 m/S 755 mmHg 98%
    02:00 +3°C° 0.1 mm 1 m/S 754 mmHg 98%
    03:00 +3°C° 0.1 mm 1 m/S 754 mmHg 98%
    04:00 +3°C° 0.1 mm 1 m/S 753 mmHg 98%
    05:00 +3°C° 0 mm 1 m/S 753 mmHg 98%
    06:00 +2°C° 0 mm 2 m/S 753 mmHg 97%
    07:00 +2°C° 0 mm 2 m/S 753 mmHg 96%
    08:00 +2°C° 0 mm 3 m/S 754 mmHg 89%
    09:00 +4°C° 0 mm 4 m/S 755 mmHg 81%
    10:00 +6°C° 0 mm 4 m/S 755 mmHg 74%
    11:00 +6°C° 0 mm 5 m/S 756 mmHg 68%
    12:00 +6°C° 0 mm 5 m/S 756 mmHg 62%
    13:00 +7°C° 0 mm 5 m/S 756 mmHg 57%
    14:00 +6°C° 0 mm 5 m/S 757 mmHg 57%
    15:00 +5°C° 0 mm 5 m/S 757 mmHg 57%
    16:00 +3°C° 0 mm 5 m/S 757 mmHg 58%
    17:00 +2°C° 0 mm 5 m/S 758 mmHg 61%
    18:00 +1°C° 0 mm 4 m/S 759 mmHg 63%
    19:00 0°C° 0 mm 4 m/S 760 mmHg 66%
    20:00 0°C° 0 mm 3 m/S 761 mmHg 67%
    21:00 0°C° 0 mm 3 m/S 761 mmHg 67%
    22:00 +1°C° 0 mm 2 m/S 762 mmHg 68%
    23:00 -1°C° 0 mm 2 m/S 762 mmHg 69%

    22 Februar, Freitag

    Zeit Temperatur Niederschläge Wind Luftdruck Luftfeuchtigkeit
    00:00 -1°C° 0 mm 2 m/S 762 mmHg 69%
    01:00 -1°C° 0 mm 2 m/S 762 mmHg 70%
    02:00 -1°C° 0 mm 2 m/S 763 mmHg 71%
    03:00 +1°C° 0 mm 1 m/S 763 mmHg 72%
    04:00 +1°C° 0 mm 1 m/S 763 mmHg 72%
    05:00 +1°C° 0 mm 1 m/S 763 mmHg 72%
    06:00 +1°C° 0 mm 1 m/S 764 mmHg 72%
    07:00 +1°C° 0 mm 1 m/S 764 mmHg 72%
    08:00 +1°C° 0 mm 1 m/S 764 mmHg 68%
    09:00 +2°C° 0 mm 1 m/S 765 mmHg 64%
    10:00 +3°C° 0 mm 1 m/S 765 mmHg 60%
    11:00 +4°C° 0 mm 1 m/S 764 mmHg 56%
    12:00 +5°C° 0 mm 1 m/S 764 mmHg 52%
    13:00 +6°C° 0 mm 1 m/S 764 mmHg 48%
    14:00 +6°C° 0 mm 1 m/S 764 mmHg 47%
    15:00 +7°C° 0 mm 1 m/S 763 mmHg 47%
    16:00 +7°C° 0 mm 1 m/S 763 mmHg 47%
    17:00 +6°C° 0 mm 1 m/S 763 mmHg 52%
    18:00 +5°C° 0 mm 1 m/S 764 mmHg 56%
    19:00 +4°C° 0 mm 1 m/S 764 mmHg 61%
    20:00 +3°C° 0 mm 1 m/S 764 mmHg 64%
    21:00 +3°C° 0 mm 1 m/S 764 mmHg 67%
    22:00 +3°C° 0 mm 1 m/S 764 mmHg 71%
    23:00 +3°C° 0 mm 1 m/S 764 mmHg 73%
    Mehr zeigen